Weather History for Prestonsburg, KY

Change the Weather History Date:

Saturday, January 12, 2013

  Actual Average (KJKL) Record (KJKL)
Temperature  
Mean Temperature 62 °F 35 °F  
Max Temperature 68 °F 43 °F 69 °F (2005)
Min Temperature 57 °F 27 °F 2 °F (1981)
Degree Days  
Heating Degree Days 2 30  
Month to date heating degree days 360  
Since 1 July heating degree days 1994  
Cooling Degree Days 0 0  
Month to date cooling degree days 0  
Year to date cooling degree days 0  
Growing Degree Days 12 (Base 50)    
Moisture  
Dew Point 58 °F    
Average Humidity 84    
Maximum Humidity 91    
Minimum Humidity 73    
Precipitation  
Precipitation 0.00 in 0.11 in 0.84 in (1989)
Month to date precipitation 1.38  
Year to date precipitation 1.38  
Snow  
Snow 0.00 in 0.20 in - ()
Month to date snowfall 2.6  
Since 1 July snowfall 8.1  
Snow Depth -    
Sea Level Pressure  
Sea Level Pressure 30.04 in    
Wind  
Wind Speed 4 mph (South)    
Max Wind Speed 9 mph    
Max Gust Speed -    
Visibility 10 miles    
Events Rain    
T = Trace of Precipitation, MM = Missing Value Source: NWS Daily Summary

Daily Weather History Graph

Daily Weather History Graph

Search for Another Location

Airport:

Trip Planner

Search our weather history database for the weather conditions in past years. The results will help you decide how hot, cold, wet, or windy it might be!

Date:

Astronomy

Jan. 12, 2013 Rise Set
Actual Time 7:45 AM EST 5:32 PM EST
Civil Twilight 7:16 AM EST 6:01 PM EST
Nautical Twilight 6:44 AM EST 6:34 PM EST
Astronomical Twilight 6:12 AM EST 7:05 PM EST
Moon 8:05 AM EST (1/12) 6:58 PM EST (1/12)
Length of Visible Light 10h 44m
Length of Day
9h 47m
New Moon, 1% of the Moon is Illuminated
Jan 12
New Moon
Jan 18
First Quarter
Jan 26
Full
Feb 3
Last Quarter
Feb 10
New

Hourly Weather History & Observations

Time (EST) Temp. Dew Point Humidity Pressure Visibility Wind Dir Wind Speed Gust Speed Precip Events Conditions
12:15 AM 60.8 °F 54.7 °F 80% 30.04 in 10.0 mi SSW 4.6 mph - N/A   Clear
12:35 AM 59.5 °F 54.1 °F 82% 30.04 in 10.0 mi South 4.6 mph - N/A   Clear
1:15 AM 58.5 °F 53.8 °F 84% 30.04 in 10.0 mi South 3.5 mph - N/A   Clear
1:35 AM 57.7 °F 53.4 °F 85% 30.04 in 10.0 mi South 5.8 mph - N/A   Clear
1:55 AM 59.0 °F 53.8 °F 83% 30.04 in 10.0 mi South 4.6 mph - N/A   Clear
2:15 AM 58.1 °F 53.6 °F 85% 30.04 in 10.0 mi South 3.5 mph - N/A   Clear
2:55 AM 58.3 °F 53.8 °F 85% 30.04 in 10.0 mi South 5.8 mph - N/A   Clear
3:15 AM 60.1 °F 54.9 °F 83% 30.04 in 10.0 mi SSW 5.8 mph - N/A   Clear
3:35 AM 59.7 °F 55.2 °F 85% 30.04 in 10.0 mi SSW 4.6 mph - N/A   Mostly Cloudy
3:55 AM 59.9 °F 55.6 °F 86% 30.04 in 10.0 mi SSW 4.6 mph - N/A   Overcast
4:15 AM 59.9 °F 55.9 °F 87% 30.05 in 10.0 mi SSW 3.5 mph - N/A   Overcast
4:35 AM 60.6 °F 56.3 °F 86% 30.05 in 10.0 mi SSW 5.8 mph - N/A   Overcast
4:55 AM 59.9 °F 56.3 °F 88% 30.04 in 10.0 mi SSW 3.5 mph - N/A   Overcast
5:15 AM 60.1 °F 57.0 °F 90% 30.04 in 10.0 mi SSW 6.9 mph - N/A   Overcast
5:35 AM 60.8 °F 57.0 °F 87% 30.04 in 10.0 mi South 5.8 mph - N/A   Mostly Cloudy
5:55 AM 61.3 °F 57.6 °F 87% 30.05 in 10.0 mi SSW 4.6 mph - N/A   Mostly Cloudy
6:15 AM 61.3 °F 57.7 °F 88% 30.06 in 10.0 mi SSW 4.6 mph - N/A   Scattered Clouds
6:35 AM 62.6 °F 58.3 °F 86% 30.07 in 10.0 mi SSW 4.6 mph - N/A   Mostly Cloudy
6:55 AM 60.4 °F 57.2 °F 89% 30.07 in 10.0 mi South 4.6 mph - N/A   Scattered Clouds
7:15 AM 62.1 °F 58.1 °F 87% 30.07 in 10.0 mi South 4.6 mph - N/A   Mostly Cloudy
7:35 AM 59.4 °F 56.7 °F 91% 30.07 in 10.0 mi South 5.8 mph - N/A   Scattered Clouds
7:55 AM 61.0 °F 57.6 °F 88% 30.08 in 10.0 mi South 4.6 mph - N/A   Scattered Clouds
8:15 AM 61.2 °F 57.9 °F 89% 30.10 in 10.0 mi South 4.6 mph - N/A   Scattered Clouds
8:35 AM 61.2 °F 58.1 °F 90% 30.11 in 10.0 mi South 3.5 mph - N/A   Mostly Cloudy
8:55 AM 61.7 °F 58.1 °F 88% 30.11 in 10.0 mi Calm Calm - N/A   Mostly Cloudy
9:15 AM 62.4 °F 59.0 °F 89% 30.11 in 10.0 mi Calm Calm - N/A   Scattered Clouds
9:35 AM 64.6 °F 60.3 °F 86% 30.11 in 10.0 mi Calm Calm - N/A   Mostly Cloudy
9:55 AM 66.0 °F 60.1 °F 81% 30.11 in 10.0 mi SSW 3.5 mph - N/A   Mostly Cloudy
10:15 AM 65.5 °F 60.4 °F 84% 30.11 in 10.0 mi Calm Calm - N/A   Scattered Clouds
10:35 AM 65.5 °F 60.1 °F 83% 30.12 in 10.0 mi South 4.6 mph - N/A   Scattered Clouds
10:55 AM 65.8 °F 59.9 °F 81% 30.11 in 10.0 mi Calm Calm - N/A   Scattered Clouds
11:15 AM 66.9 °F 59.9 °F 78% 30.11 in 10.0 mi SSW 3.5 mph - N/A   Mostly Cloudy
11:35 AM 67.1 °F 60.3 °F 79% 30.09 in 10.0 mi SSW 4.6 mph - N/A   Mostly Cloudy
11:55 AM 68.0 °F 60.4 °F 77% 30.08 in 10.0 mi South 5.8 mph - N/A   Scattered Clouds
12:15 PM 68.5 °F 60.1 °F 74% 30.07 in 10.0 mi SW 6.9 mph - N/A   Scattered Clouds
1:15 PM 68.9 °F 60.3 °F 74% 30.06 in 10.0 mi SSW 5.8 mph - N/A   Mostly Cloudy
1:35 PM 68.9 °F 59.9 °F 73% 30.06 in 10.0 mi SSW 3.5 mph - N/A   Overcast
1:55 PM 68.5 °F 59.9 °F 74% 30.06 in 10.0 mi South 3.5 mph - N/A   Overcast
2:35 PM 67.5 °F 60.8 °F 79% 30.05 in 10.0 mi Calm Calm - N/A   Light Drizzle
2:55 PM 68.0 °F 60.4 °F 77% 30.05 in 10.0 mi SSW 5.8 mph - N/A Rain Rain
3:15 PM 66.4 °F 60.8 °F 82% 30.05 in 10.0 mi WSW 3.5 mph - N/A   Drizzle
3:35 PM 65.3 °F 61.0 °F 86% 30.05 in 10.0 mi Calm Calm - N/A Rain Rain
3:55 PM 65.3 °F 61.2 °F 86% 30.04 in 10.0 mi SSE 5.8 mph - N/A   Light Drizzle
4:15 PM 64.6 °F 61.2 °F 89% 30.04 in 10.0 mi SSE 3.5 mph - N/A   Overcast
4:35 PM 64.4 °F 61.2 °F 89% 30.03 in 10.0 mi Calm Calm - N/A   Overcast
4:55 PM 64.4 °F 61.0 °F 89% 30.03 in 10.0 mi Calm Calm - N/A   Overcast
5:15 PM 64.4 °F 60.8 °F 88% 30.02 in 10.0 mi Calm Calm - N/A   Overcast
5:35 PM 64.4 °F 60.6 °F 88% 30.02 in 10.0 mi SE 3.5 mph - N/A   Overcast
5:55 PM 63.0 °F 60.3 °F 91% 30.01 in 10.0 mi Calm Calm - N/A   Overcast
6:15 PM 63.0 °F 60.3 °F 91% 30.01 in 10.0 mi Calm Calm - N/A   Overcast
6:35 PM 64.0 °F 59.5 °F 85% 30.01 in 10.0 mi SSE 4.6 mph - N/A   Overcast
7:15 PM 65.3 °F 59.4 °F 81% 30.00 in 10.0 mi South 5.8 mph - N/A   Overcast
7:35 PM 64.6 °F 59.2 °F 83% 30.01 in 10.0 mi South 8.1 mph - N/A   Scattered Clouds
7:55 PM 64.4 °F 59.2 °F 83% 30.00 in 10.0 mi South 5.8 mph - N/A   Mostly Cloudy
8:15 PM 64.6 °F 59.0 °F 82% 29.99 in 10.0 mi South 5.8 mph - N/A   Scattered Clouds
8:35 PM 64.2 °F 58.6 °F 82% 29.99 in 10.0 mi South 6.9 mph - N/A   Clear
8:55 PM 64.2 °F 58.5 °F 82% 29.98 in 10.0 mi South 5.8 mph - N/A   Clear
9:15 PM 63.7 °F 58.3 °F 83% 29.98 in 10.0 mi South 5.8 mph - N/A   Clear
9:35 PM 64.0 °F 58.3 °F 82% 29.97 in 10.0 mi South 5.8 mph - N/A   Clear
9:55 PM 63.7 °F 58.3 °F 83% 29.97 in 10.0 mi South 6.9 mph - N/A   Clear
10:15 PM 63.9 °F 58.3 °F 82% 29.97 in 10.0 mi South 6.9 mph - N/A   Clear
10:35 PM 63.5 °F 58.3 °F 83% 29.96 in 10.0 mi South 8.1 mph - N/A   Clear
10:55 PM 63.5 °F 58.3 °F 83% 29.96 in 10.0 mi South 9.2 mph - N/A   Clear
11:15 PM 63.1 °F 58.1 °F 84% 29.96 in 10.0 mi South 6.9 mph - N/A   Clear
11:35 PM 63.3 °F 58.3 °F 84% 29.96 in 10.0 mi SSW 5.8 mph - N/A   Clear
11:55 PM 63.5 °F 58.3 °F 83% 29.97 in 10.0 mi SSW 3.5 mph - N/A   Clear